sat.trackr.live / text

‹ back to catalog

STARLINK-30508

NORAD 57979 · 2023-151R

PAYLOAD ACTIVE UNKNOWN

§ Identity

Operator
Country
US
Launch date
2023-09-30
Launch site
AFETR
Launch vehicle
Mass (kg)
RCS (m²)

Purposes: comms

External: N2YO · Heavens-Above · Gunter

§ Orbital elements

Epoch: 2026-09-20T21:05:48.997248Z

Period
94.27 min
Inclination
43.0022°
Eccentricity
0.0000950
Mean motion
15.27571934 rev/d
Perigee alt
482.4 km
Apogee alt
483.7 km
Semi-major
6,861.2 km
B*
7.7124e-6
RAAN
328.4769°
Arg perigee
274.8426°
Mean anomaly
85.2317°
Rev number
16,544

§ Raw data

STARLINK-305081 57979U 23151R   26263.87903932 -.00000050  00000+0  77124-5 0  99902 57979  43.0022 328.4769 0000950 274.8426  85.2317 15.27571934165446

JSON: /api/v1/satellites/57979 · /tle

For live sub-satellite position, see the globe view (requires WebGL).

§ Visibility from observer

Set your observer location to see the next 7 days of passes ≥ 10°. The values pass through the URL so the page stays shareable.

No JS? Fill the form by hand. The geolocation button needs JavaScript.